User: anonymous   Login
Location: Muenchen
(48.1800°N, 11.5800°E)
Time: 04:52:34
(UTC+02:00)
Language:

ISS - Orbit

View from above orbital plane
View from above orbital plane
View from above satellite
View from above satellite

Ground track
Ground track

The orbit data is extracted from the following two-line orbital elements,

1 25544U 98067A   16125.89809258  .00006839  00000-0  10920-3 0  9995
2 25544  51.6433 273.9781 0001963  89.1906  20.5413 15.54444496998246
Epoch (UTC): 04 May 2016 21:33:15
Eccentricity: 0.0001963
inclination: 51.6433°
perigee height: 402 km
apogee height: 405 km
right ascension of ascending node: 273.9781°
argument of perigee: 89.1906°
revolutions per day: 15.54444496
mean anomaly at epoch: 20.5413°
orbit number at epoch: 99824

The dashed part of the orbit path shows where the satellite is in the earth's shadow,  

DLR